Wind_Speed
3 4 4 4 5 5 5 5 6 6 6 6 6 5 5 4 4 4 5 5 5 5 6 8 8 9 9 10 11 11 12 12 13 14 15 15 14 13 12 12 13 14 14
3 4 4 4 5 5 5 6 6 6 6 6 6 6 5 5 5 5 5 5 5 5 5 6 8 8 9 10 10 10 11 12 13 14 15 16 16 14 14 13 14 14 14
3 3 4 4 5 5 6 6 6 6 6 6 6 6 5 5 5 5 5 5 5 5 5 6 7 8 9 9 9 10 11 12 13 12 13 15 15 15 15 14 14 14 14
3 3 3 4 5 5 6 6 6 6 7 7 6 6 5 5 5 5 5 5 5 5 5 5 6 7 8 9 10 10 11 12 12 12 11 13 15 15 15 15 15 14 14
2 3 3 4 5 6 6 6 6 6 7 7 7 6 5 5 5 6 6 6 6 6 6 6 6 7 7 8 9 9 10 11 11 12 12 13 14 15 16 16 16 16 16
3 3 3 4 5 6 6 6 6 6 7 7 7 6 6 5 6 6 6 6 6 6 6 7 7 7 8 9 9 9 10 11 11 12 13 14 14 15 16 17 18 18 18
3 3 3 4 5 5 5 6 6 6 7 7 7 7 6 6 6 6 6 6 6 7 7 7 7 7 8 9 9 9 11 12 12 12 13 14 15 16 17 18 18 19 20
3 3 4 5 5 5 5 6 6 6 7 7 7 7 7 7 6 6 6 6 7 7 7 8 8 8 9 10 10 10 10 11 12 13 14 14 16 17 17 18 19 19 20
4 4 4 4 5 5 5 6 6 7 7 7 7 7 7 7 7 7 7 7 7 7 8 8 8 9 9 10 10 11 11 12 12 13 14 15 16 17 17 18 20 20 21
5 5 5 5 5 5 5 6 6 7 7 7 7 7 7 7 7 7 7 7 8 8 8 9 9 9 9 9 10 11 11 11 11 12 13 14 16 18 18 20 21 21 22
6 6 6 5 5 5 5 6 6 7 7 7 7 7 8 8 8 8 8 8 9 9 9 9 10 10 10 10 10 11 12 13 13 13 14 15 16 18 19 20 21 22 23
7 7 6 6 5 5 6 6 7 7 7 7 7 8 8 8 8 9 9 9 9 10 10 10 11 11 11 11 12 12 12 13 14 15 15 16 17 18 19 20 21 22 23
7 7 7 6 6 6 6 7 7 7 7 7 8 8 8 9 9 10 10 10 10 10 11 11 12 12 12 13 13 14 14 15 15 16 17 18 19 19 21 21 22 23 24
8 8 7 7 7 7 8 8 8 8 7 8 8 9 9 9 10 11 11 12 12 12 12 13 13 13 14 14 14 15 15 16 17 18 18 19 20 21 22 23 24 24 25
9 9 9 9 8 8 8 8 8 8 8 8 9 9 9 10 11 12 13 13 13 13 13 14 14 15 16 16 16 17 17 18 18 19 20 21 22 23 24 25 25 26 26
10 10 10 10 10 9 9 8 8 9 9 9 9 10 10 11 12 12 13 14 14 15 15 15 16 16 17 18 19 19 20 20 20 21 22 23 24 25 26 27 28 28 28
11 11 11 11 11 10 10 10 10 10 10 10 10 11 12 13 13 14 14 15 16 16 17 17 17 18 19 20 20 21 22 22 23 23 24 25 26 27 28 29 30 30 31
12 11 12 12 12 11 11 11 11 11 12 12 12 12 13 14 15 15 16 17 17 18 19 19 20 20 21 22 22 23 24 24 25 26 27 27 28 29 30 30 31 31 32
13 13 13 13 13 13 13 13 13 13 13 13 14 14 14 15 16 17 18 18 19 20 20 21 22 22 23 24 24 25 25 26 27 28 29 29 29 30 31 32 32 33 33
14 14 14 15 15 15 15 14 14 14 14 15 15 16 16 16 17 18 19 20 20 21 22 23 24 25 26 26 27 27 27 28 29 29 30 31 31 32 33 34 35 35 35
15 15 15 16 16 15 15 14 14 15 15 16 17 17 17 18 19 19 20 21 22 23 24 25 26 27 27 28 29 29 30 30 31 31 32 33 33 34 35 36 37 38 38
16 15 16 15 15 15 15 15 15 16 17 18 18 19 19 19 21 22 23 24 24 25 26 27 28 29 30 30 31 31 32 32 33 34 35 35 36 36 37 38 38 39 40
16 15 15 14 14 15 15 16 17 18 18 19 20 20 21 21 22 24 24 25 26 27 28 29 30 31 32 33 33 34 34 35 35 36 37 38 39 39 40 40 41 42 42
15 14 14 14 15 15 16 17 17 18 19 20 21 22 23 23 24 25 26 27 28 29 30 31 32 33 34 35 36 36 37 38 38 39 40 40 41 41 42 43 43 44 45
16 15 15 16 16 17 18 18 19 20 21 21 22 23 24 25 27 28 29 30 30 32 32 34 35 36 36 37 38 39 40 41 41 41 42 43 43 43 44 45 45 46 46
16 17 17 18 18 18 18 19 20 21 22 23 24 25 26 27 29 30 31 32 32 34 35 36 37 37 38 39 40 42 43 44 44 44 44 45 46 46 46 46 47 47 48
Wind_Direction
338 343 350 352 352 351 356 355 354 347 344 346 348 347 334 317 314 309 304 299 290 275 265 258 257 257 258 258 254 256 255 252 252 250 249 247 244 244 243 245 241 242 242
344 349 358 1 2 1 0 360 2 360 355 353 350 348 344 337 326 310 308 301 293 284 280 269 262 262 264 261 257 258 257 256 256 254 252 247 243 242 243 246 249 249 250
350 360 358 357 1 360 360 0 360 356 354 356 355 347 341 340 337 331 324 314 300 290 288 280 265 265 265 262 262 261 261 262 261 257 255 244 241 242 243 247 251 252 252
349 355 356 355 358 0 0 0 360 355 352 352 352 348 343 342 337 334 329 323 314 306 301 295 283 276 274 271 267 265 264 266 259 255 251 244 242 245 246 249 251 254 256
336 341 348 352 354 357 357 359 1 357 354 353 352 349 345 343 340 337 335 330 324 318 308 299 291 286 282 275 268 267 268 267 263 256 250 249 249 251 251 254 255 256 257
324 336 345 348 351 353 353 356 359 358 354 357 358 355 350 342 338 337 335 334 332 326 319 308 300 294 289 281 276 274 268 267 264 259 255 255 256 256 255 258 260 259 258
311 325 333 342 347 349 349 352 353 354 352 353 356 357 352 345 341 341 338 336 331 328 323 316 308 301 299 289 282 277 272 269 266 264 260 258 258 260 260 262 262 262 262
302 312 322 332 337 340 346 350 350 348 347 348 350 353 352 349 346 345 342 336 334 332 328 324 317 307 301 298 286 285 282 276 268 264 264 263 264 263 263 263 264 265 266
291 300 313 322 326 331 337 341 341 341 342 344 346 350 352 351 346 344 340 337 335 334 333 330 325 318 312 303 298 291 291 287 278 274 268 268 268 268 267 267 267 267 269
285 293 302 311 315 321 326 332 336 335 335 339 342 344 345 344 343 341 339 336 332 332 331 330 328 324 316 307 305 297 293 289 283 278 273 272 270 270 270 269 271 271 271
279 286 294 301 308 317 325 327 330 331 330 331 334 338 337 337 336 336 337 335 330 330 331 329 327 325 321 315 308 303 299 294 289 285 281 278 277 277 275 272 273 272 271
276 282 288 295 301 310 317 320 323 325 327 327 329 331 330 329 333 332 332 332 331 330 329 328 326 325 323 319 315 307 301 298 294 290 287 284 282 281 280 278 275 274 274
275 280 284 292 295 301 307 311 316 317 321 323 325 328 327 327 327 327 327 328 328 327 326 325 323 321 319 316 313 309 305 300 294 291 289 287 285 283 281 280 279 277 276
272 275 280 287 292 299 303 305 307 308 310 314 320 325 327 322 321 322 321 322 322 322 321 321 321 319 317 315 312 309 307 303 298 292 290 288 286 284 283 281 281 279 277
271 276 280 285 291 298 301 302 302 303 304 307 312 316 320 322 319 319 319 318 320 320 319 319 319 319 317 315 313 310 308 304 301 297 294 292 291 289 288 286 286 285 281
271 275 280 282 287 291 293 296 299 300 299 301 307 311 315 316 318 318 319 321 321 320 319 318 317 317 315 313 312 310 307 305 302 299 295 293 291 291 291 291 289 288 285
271 277 279 279 282 285 286 289 292 294 296 298 302 305 307 309 311 312 314 316 317 317 316 317 317 316 315 313 312 310 307 305 303 299 297 294 292 291 290 290 289 288 288
271 276 280 279 280 282 283 286 289 291 294 297 299 301 303 305 306 308 309 311 313 312 312 313 313 313 313 312 311 309 307 305 303 300 298 296 294 292 291 290 289 288 288
273 273 276 278 279 279 280 283 286 289 292 296 298 299 301 303 305 306 308 309 310 310 310 310 310 311 311 310 309 307 306 305 303 301 299 297 296 294 293 290 289 288 288
276 275 275 276 277 277 279 280 284 288 292 295 298 299 300 302 305 306 308 308 308 308 309 309 309 309 308 308 307 306 305 304 303 301 299 298 297 296 294 292 290 288 287
276 277 277 278 278 277 277 279 284 288 291 295 297 299 301 302 304 306 307 308 308 307 308 308 308 308 307 306 305 304 304 303 302 301 299 298 297 295 294 292 291 290 288
276 277 279 279 277 276 278 280 285 289 292 294 297 298 299 302 304 305 306 307 307 307 307 307 306 306 305 304 304 304 303 303 302 301 300 298 297 296 295 294 292 291 289
280 282 280 277 277 278 278 281 285 289 293 295 297 298 299 301 304 305 306 307 308 307 307 307 307 306 305 304 304 304 304 303 302 301 300 299 298 297 296 294 293 291 290
283 284 282 279 278 279 281 284 287 291 294 296 297 298 300 302 304 305 306 306 307 307 307 307 307 307 306 305 305 304 304 303 302 301 299 299 298 297 296 295 294 292 290
283 282 281 280 280 282 283 286 290 292 295 297 298 299 300 303 304 304 305 306 307 307 307 307 307 307 306 306 305 305 305 304 303 302 300 300 299 298 297 295 294 292 291
282 284 283 282 285 287 287 289 290 292 294 296 297 298 300 303 304 304 306 307 307 307 307 307 306 306 305 305 305 305 305 304 303 302 301 300 300 299 298 296 294 292 291
Height
5886 5886 5885 5884 5884 5883 5882 5881 5880 5880 5879 5878 5877 5877 5876 5876 5876 5875 5875 5875 5875 5875 5876 5877 5877 5878 5879 5880 5881 5881 5882 5883 5884 5885 5886 5888 5889 5891 5893 5894 5895 5896 5898
5886 5885 5885 5884 5884 5883 5882 5881 5880 5880 5879 5878 5877 5876 5876 5875 5875 5874 5874 5874 5874 5874 5875 5875 5876 5876 5877 5878 5878 5879 5880 5880 5881 5881 5882 5883 5886 5888 5890 5892 5893 5894 5896
5885 5885 5885 5884 5884 5883 5882 5881 5880 5879 5878 5878 5877 5876 5875 5875 5874 5874 5873 5873 5873 5873 5874 5874 5874 5875 5875 5875 5876 5877 5877 5877 5877 5877 5876 5878 5882 5885 5888 5889 5891 5892 5893
5885 5885 5885 5884 5883 5882 5882 5881 5880 5879 5878 5877 5876 5876 5875 5874 5874 5873 5873 5873 5872 5872 5872 5872 5873 5873 5873 5874 5874 5875 5875 5875 5875 5875 5875 5877 5880 5883 5885 5887 5888 5889 5890
5885 5885 5885 5884 5883 5882 5881 5881 5880 5879 5878 5877 5876 5875 5875 5874 5873 5873 5872 5872 5871 5871 5871 5871 5872 5872 5872 5872 5873 5873 5874 5874 5874 5875 5875 5877 5879 5881 5883 5885 5886 5887 5888
5885 5884 5884 5884 5883 5882 5881 5881 5880 5879 5878 5877 5876 5875 5874 5873 5873 5872 5871 5871 5870 5870 5870 5870 5870 5871 5870 5871 5871 5871 5871 5872 5873 5874 5875 5876 5877 5879 5880 5882 5883 5884 5884
5884 5884 5884 5883 5883 5882 5881 5880 5880 5879 5878 5877 5876 5875 5874 5873 5872 5872 5871 5871 5870 5869 5869 5869 5869 5869 5869 5869 5869 5869 5870 5870 5871 5871 5872 5874 5875 5876 5877 5878 5879 5880 5881
5884 5884 5883 5883 5882 5882 5881 5880 5880 5879 5878 5877 5876 5875 5874 5874 5872 5871 5871 5870 5869 5869 5868 5868 5868 5867 5867 5867 5867 5868 5868 5868 5868 5869 5870 5871 5872 5873 5874 5874 5875 5876 5876
5883 5883 5883 5882 5882 5881 5881 5880 5879 5878 5877 5877 5876 5875 5874 5873 5872 5871 5870 5869 5869 5868 5868 5867 5866 5866 5866 5865 5865 5865 5866 5866 5866 5867 5867 5868 5869 5869 5870 5870 5871 5871 5872
5882 5882 5882 5882 5882 5881 5880 5880 5879 5878 5877 5876 5875 5874 5874 5873 5872 5871 5870 5869 5868 5868 5867 5866 5865 5865 5864 5864 5864 5863 5864 5864 5864 5864 5864 5865 5865 5865 5865 5866 5866 5867 5867
5881 5881 5881 5881 5881 5880 5880 5879 5878 5877 5876 5876 5875 5874 5873 5872 5871 5871 5870 5869 5868 5867 5866 5865 5864 5863 5863 5862 5862 5861 5861 5861 5861 5861 5861 5861 5861 5861 5861 5861 5861 5861 5861
5880 5880 5880 5880 5880 5879 5879 5878 5877 5877 5876 5875 5874 5873 5872 5872 5871 5870 5869 5868 5867 5866 5865 5864 5863 5862 5861 5860 5860 5859 5859 5858 5858 5858 5857 5857 5857 5857 5856 5856 5856 5855 5855
5879 5879 5879 5879 5878 5878 5877 5877 5876 5876 5875 5874 5874 5873 5872 5871 5870 5869 5868 5867 5866 5865 5864 5863 5861 5860 5859 5858 5857 5857 5856 5855 5854 5854 5853 5853 5852 5852 5851 5850 5849 5849 5848
5877 5877 5877 5877 5877 5876 5876 5876 5875 5874 5874 5873 5873 5872 5871 5870 5869 5868 5867 5866 5865 5864 5862 5861 5860 5858 5857 5856 5855 5854 5853 5851 5850 5850 5849 5848 5847 5846 5845 5844 5843 5842 5842
5875 5875 5875 5875 5875 5874 5874 5874 5873 5873 5872 5872 5871 5870 5869 5868 5867 5866 5865 5864 5863 5862 5860 5859 5857 5855 5854 5853 5851 5850 5849 5848 5846 5845 5844 5843 5842 5841 5839 5838 5837 5836 5834
5872 5872 5873 5873 5872 5872 5872 5872 5871 5871 5870 5870 5869 5868 5867 5866 5865 5864 5863 5861 5860 5859 5858 5856 5854 5853 5851 5849 5848 5846 5844 5843 5841 5840 5839 5837 5836 5834 5833 5831 5830 5828 5827
5870 5870 5870 5870 5870 5870 5870 5869 5869 5869 5868 5867 5867 5866 5865 5864 5863 5861 5860 5859 5857 5856 5854 5853 5851 5849 5847 5845 5843 5841 5839 5837 5835 5834 5832 5830 5829 5827 5826 5824 5822 5820 5819
5867 5867 5867 5867 5867 5867 5867 5867 5866 5866 5865 5865 5864 5863 5862 5861 5860 5859 5857 5855 5854 5852 5850 5848 5846 5844 5842 5840 5838 5836 5833 5831 5829 5827 5825 5823 5822 5820 5818 5816 5814 5812 5810
5863 5864 5864 5864 5863 5863 5863 5863 5863 5863 5862 5862 5861 5860 5859 5858 5856 5855 5853 5852 5850 5848 5846 5844 5842 5839 5837 5835 5832 5830 5827 5824 5822 5820 5817 5815 5813 5811 5809 5807 5805 5803 5801
5860 5860 5860 5860 5860 5860 5860 5859 5859 5859 5859 5858 5857 5856 5855 5854 5852 5851 5849 5847 5845 5843 5841 5838 5836 5834 5831 5828 5826 5823 5820 5817 5815 5812 5809 5806 5804 5802 5799 5797 5795 5793 5791
5856 5856 5855 5855 5855 5855 5855 5855 5856 5855 5855 5854 5853 5852 5851 5850 5848 5846 5844 5842 5840 5837 5835 5832 5830 5827 5824 5821 5818 5815 5812 5809 5806 5803 5800 5797 5795 5792 5789 5786 5783 5781 5779
5851 5851 5851 5850 5850 5851 5851 5851 5851 5851 5851 5850 5849 5848 5846 5845 5843 5841 5838 5836 5834 5831 5829 5826 5823 5820 5816 5813 5810 5806 5803 5800 5798 5794 5790 5787 5784 5781 5778 5775 5772 5769 5766
5847 5846 5846 5846 5846 5846 5847 5847 5847 5846 5846 5845 5844 5843 5841 5839 5837 5835 5833 5830 5827 5824 5821 5818 5815 5811 5808 5804 5800 5797 5793 5790 5786 5783 5779 5776 5772 5769 5765 5762 5759 5756 5753
5843 5842 5842 5842 5842 5842 5842 5842 5842 5841 5841 5840 5838 5837 5835 5833 5831 5829 5826 5823 5820 5816 5813 5810 5806 5802 5798 5794 5790 5786 5782 5779 5775 5771 5766 5764 5760 5756 5752 5749 5745 5741 5738
5839 5839 5838 5838 5838 5838 5837 5837 5837 5836 5835 5834 5832 5831 5829 5827 5824 5822 5819 5816 5812 5808 5804 5800 5796 5792 5788 5784 5779 5775 5771 5767 5764 5760 5754 5750 5747 5743 5739 5735 5731 5727 5723
5835 5835 5834 5834 5834 5833 5832 5832 5831 5830 5829 5828 5826 5824 5822 5819 5816 5813 5811 5807 5804 5800 5796 5792 5787 5783 5778 5773 5769 5764 5759 5755 5750 5747 5742 5737 5733 5729 5726 5721 5716 5712 5708